This is the latest recevied weather packets stored in our database for station/object W4SKW. If no packets are shown the sender has not sent any weather packets the latest 1 day(s).
| Time | Temp. | Humidity | Pressure | Rain* | Wind** | Luminosity | Snow |
|---|---|---|---|---|---|---|---|
| 1778074136 | 18.33° C | 87% | 1015.5 hPa | 0 mm | - | 15 W/m² | - |
| 1778072621 | 18.33° C | 88% | 1015 hPa | 0 mm | - | 41 W/m² | - |
| 1778071412 | 18.33° C | 88% | 1015.1 hPa | 0 mm | - | 16 W/m² | - |
| 1778070808 | 18.33° C | 87% | 1015 hPa | 0 mm | - | 25 W/m² | - |
| 1778070505 | 18.33° C | 88% | 1014.6 hPa | 0 mm | - | 26 W/m² | - |
| 1778069900 | 17.78° C | 88% | 1014.4 hPa | 0 mm | - | 24 W/m² | - |
| 1778069294 | 17.78° C | 88% | 1014.8 hPa | 0 mm | - | 21 W/m² | - |
| 1778068689 | 17.78° C | 88% | 1014.4 hPa | 0 mm | - | 18 W/m² | - |
| 1778068387 | 17.78° C | 87% | 1014.3 hPa | 0 mm | - | 14 W/m² | - |
| 1778066450 | 17.22° C | 87% | 1014.4 hPa | 0 mm | - | 4 W/m² | - |
| 1778066148 | 17.22° C | 88% | 1014.1 hPa | 0 mm | - | 3 W/m² | - |
| 1778065542 | 17.22° C | 88% | 1014.1 hPa | 0 mm | - | 2 W/m² | - |
| 1778063120 | 17.22° C | 86% | 1013.5 hPa | 0 mm | - | 0 W/m² | - |
| 1778062508 | 17.22° C | 86% | 1013.6 hPa | 0 mm | - | 0 W/m² | - |
| 1778062205 | 17.22° C | 86% | 1013.6 hPa | 0 mm | - | 0 W/m² | - |
| 1778061300 | 17.22° C | 85% | 1013.5 hPa | 0 mm | - | 0 W/m² | - |
| 1778060694 | 17.22° C | 85% | 1013.5 hPa | 0 mm | - | 0 W/m² | - |
| 1778060391 | 17.22° C | 85% | 1013.4 hPa | 0 mm | - | 0 W/m² | - |
| 1778060089 | 17.22° C | 85% | 1013.2 hPa | 0 mm | - | 0 W/m² | - |
| 1778059787 | 17.22° C | 85% | 1013.2 hPa | 0 mm | - | 0 W/m² | - |
| 1778058879 | 17.22° C | 84% | 1013.1 hPa | 0 mm | - | 0 W/m² | - |
| 1778058274 | 17.22° C | 84% | 1013.2 hPa | 0 mm | - | 0 W/m² | - |
| 1778057970 | 17.22° C | 84% | 1013 hPa | 0 mm | - | 0 W/m² | - |
| 1778057667 | 16.67° C | 84% | 1012.9 hPa | 0 mm | - | 0 W/m² | - |
| 1778057362 | 16.67° C | 83% | 1013.1 hPa | 0 mm | - | 0 W/m² | - |
* Rain latest hour (hover to see other rain measurements)
** Current wind speed in m/s (hover to see current wind gust speed)